Location: ?
(35.4996°N, 139.3166°E)
Time: 03:29:25
(UTC+00:00)

Resurs 1-4 Rocket - Visible Passes

Search period start: 25 July 2024 00:00
Search period end: 04 August 2024 00:00
Orbit: 799 x 812 km, 98.7° (Epoch: 24 July)

Date Brightness Start Highest point End Pass type
(mag) Time Alt. Az. Time Alt. Az. Time Alt. Az.
25 Jul 3.1 16:08:54 10° NNE 16:13:15 40° ENE 16:13:15 40° ENE visible
25 Jul 3.6 17:49:28 10° NNW 17:53:23 21° WNW 17:54:18 20° W visible
26 Jul 3.9 15:44:37 10° NE 15:47:57 23° E 15:47:57 23° E visible
26 Jul 2.9 17:23:53 10° N 17:28:41 36° WNW 17:29:00 35° WNW visible
27 Jul 4.5 15:21:11 10° ENE 15:22:40 13° ENE 15:22:40 13° ENE visible
27 Jul 2.2 16:58:39 10° N 17:03:43 62° WNW 17:03:43 62° WNW visible
28 Jul 2.3 16:33:42 10° NNE 16:38:25 67° NE 16:38:25 67° NE visible
28 Jul 4.1 18:16:00 10° NW 18:18:06 12° WNW 18:19:29 11° WNW visible
29 Jul 3.2 16:09:02 10° NNE 16:13:08 39° ENE 16:13:08 39° ENE visible
29 Jul 3.6 17:49:36 10° NNW 17:53:31 21° WNW 17:54:11 21° WNW visible
30 Jul 4.0 15:44:45 10° NE 15:47:50 22° ENE 15:47:50 22° ENE visible
30 Jul 2.9 17:24:01 10° N 17:28:49 36° WNW 17:28:53 36° WNW visible
31 Jul 4.6 15:21:19 10° ENE 15:22:32 12° ENE 15:22:32 12° ENE visible
31 Jul 2.3 16:58:47 10° N 17:03:35 60° NW 17:03:35 60° NW visible
01 Aug 2.5 16:33:50 10° NNE 16:38:18 61° NE 16:38:18 61° NE visible
01 Aug 4.1 18:16:07 10° NW 18:18:14 12° WNW 18:19:21 12° WNW visible
02 Aug 3.3 16:09:10 10° NNE 16:13:00 37° ENE 16:13:00 37° ENE visible
02 Aug 3.6 17:49:44 10° NNW 17:53:38 21° WNW 17:54:03 21° WNW visible
03 Aug 4.1 15:44:53 10° NE 15:47:42 22° ENE 15:47:42 22° ENE visible
03 Aug 2.9 17:24:09 10° N 17:28:45 36° WNW 17:28:45 36° WNW visible
